Jackson Hawkins Field, MS

7:27 AM CDT on April 26, 2017 (GMT -0500)
Hawkins

Weather History for KHKS - December, 2012

Change the Weather History Date:

Tuesday, December 18, 2012

  Actual Average (KJAN) Record (KJAN)
Temperature  
Mean Temperature 54 °F -  
Max Temperature 69 °F 59 °F 82 °F (1908)
Min Temperature 39 °F 32 °F 13 °F (1901)
Degree Days  
Heating Degree Days 11    
Growing Degree Days 4 (Base 50)    
Moisture  
Dew Point 42 °F    
Average Humidity 67    
Maximum Humidity 96    
Minimum Humidity 35    
Precipitation  
Precipitation 0.00 in - - ()
Sea Level Pressure  
Sea Level Pressure 29.94 in    
Wind  
Wind Speed 4 mph (South)    
Max Wind Speed 12 mph    
Max Gust Speed -    
Visibility 10 miles    
Events      
Averages and records for this station are not official NWS values.
T = Trace of Precipitation, MM = Missing Value Source: NWS Daily Summary

Daily Weather History Graph

Daily Weather History Graph

Search for Another Location

Airport or City:

Trip Planner

Search our weather history database for the weather conditions in past years. The results will help you decide how hot, cold, wet, or windy it might be!

Date:

Astronomy

Dec. 18, 2012 Rise Set
Actual Time 6:56 AM CST 4:58 PM CST
Civil Twilight 6:29 AM CST 5:25 PM CST
Nautical Twilight 5:59 AM CST 5:56 PM CST
Astronomical Twilight 5:29 AM CST 6:26 PM CST
Moon 10:54 AM CST (12/18) 11:04 PM CST (12/18)
Length of Visible Light 10h 56m
Length of Day
10h 01m
Waxing Crescent, 35% of the Moon is Illuminated
Dec 18
Waxing Crescent
Dec 19
First Quarter
Dec 28
Full
Jan 4
Last Quarter
Jan 11
New

Hourly Weather History & Observations

Time (CST) Temp. Windchill Dew Point Humidity Pressure Visibility Wind Dir Wind Speed Gust Speed Precip Events Conditions
12:53 AM 46.9 °F - 42.1 °F 83% 29.90 in 10.0 mi Calm Calm - N/A   Clear
1:53 AM 44.1 °F - 39.9 °F 85% 29.91 in 10.0 mi Calm Calm - N/A   Clear
2:53 AM 42.1 °F - 39.9 °F 92% 29.91 in 10.0 mi Calm Calm - N/A   Clear
3:53 AM 42.1 °F - 39.0 °F 89% 29.91 in 10.0 mi Calm Calm - N/A   Clear
4:53 AM 41.0 °F - 39.0 °F 93% 29.92 in 10.0 mi Calm Calm - N/A   Clear
5:53 AM 39.0 °F - 37.9 °F 96% 29.94 in 5.0 mi Calm Calm - N/A   Clear
6:53 AM 41.0 °F - 37.9 °F 89% 29.96 in 10.0 mi Calm Calm - N/A   Clear
7:53 AM 44.1 °F 42.5 °F 41.0 °F 89% 29.97 in 10.0 mi SE 3.5 mph - N/A   Clear
8:53 AM 51.1 °F - 44.1 °F 77% 29.99 in 10.0 mi SSE 6.9 mph - N/A   Clear
9:53 AM 55.0 °F - 44.1 °F 67% 30.00 in 10.0 mi SSE 8.1 mph - N/A   Clear
10:53 AM 60.1 °F - 43.0 °F 53% 29.99 in 10.0 mi SSE 11.5 mph - N/A   Clear
11:53 AM 64.0 °F - 43.0 °F 46% 29.96 in 10.0 mi South 10.4 mph - N/A   Clear
12:53 PM 66.0 °F - 39.9 °F 38% 29.94 in 10.0 mi South 9.2 mph - N/A   Clear
1:53 PM 66.9 °F - 41.0 °F 39% 29.92 in 10.0 mi SSW 9.2 mph - N/A   Clear
2:53 PM 69.1 °F - 41.0 °F 36% 29.91 in 10.0 mi South 9.2 mph - N/A   Clear
3:53 PM 68.0 °F - 39.0 °F 35% 29.90 in 10.0 mi South 10.4 mph - N/A   Clear
4:53 PM 62.1 °F - 39.9 °F 44% 29.91 in 10.0 mi South 8.1 mph - N/A   Clear
5:53 PM 59.0 °F - 41.0 °F 51% 29.92 in 10.0 mi South 6.9 mph - N/A   Clear
6:53 PM 55.9 °F - 43.0 °F 62% 29.93 in 10.0 mi South 8.1 mph - N/A   Clear
7:53 PM 57.9 °F - 44.1 °F 60% 29.94 in 10.0 mi South 11.5 mph - N/A   Clear
8:53 PM 55.9 °F - 45.0 °F 67% 29.95 in 10.0 mi South 10.4 mph - N/A   Clear
9:53 PM 55.0 °F - 45.0 °F 69% 29.94 in 10.0 mi South 10.4 mph - N/A   Clear
10:53 PM 53.1 °F - 45.0 °F 74% 29.94 in 10.0 mi South 9.2 mph - N/A   Clear
11:53 PM 51.1 °F - 45.0 °F 80% 29.96 in 10.0 mi SSE 5.8 mph - N/A   Clear